Flag for Ireland Weather past 2 weeks in Dublin, Ireland

Now
48 °F

Partly sunny.


Feels Like: 45 °F
Forecast: 44 / 56 °F
Wind: 7 mph from Southwest

Location: Dublin Airport

Current Time: May 27, 2015 at 9:05:59 AM

Latest Report: May 27, 2015 at 8:30 AM


Visibility: N/A

Pressure: 30.24 "Hg

Humidity: 76%

Dew point: 41 °F

Location of DublinLocation

Historic Weather in Dublin — Graph

°F

Dublin temperature yesterday

Maximum temperature yesterday: 61 °F (at 2:30 PM)
Minimum temperature yesterday: 45 °F (at 10:30 PM)
Average temperature yesterday: 53 °F

Past Weeks' High & Low Weather Summary

 TemperatureHumidityPressure
High64 °F (May 22, 6:30 PM)100% (May 13, 3:30 AM)30.36 "Hg (May 13, 3:30 AM)
Low34 °F (May 13, 4:30 AM)51% (May 16, 6:00 PM)29.47 "Hg (May 18, 5:30 PM)
Average51 °F80%30.08 "Hg
* Reported May 12 8:00 AM — May 27 8:00 AM, Dublin, Weather by CustomWeather, © 2015

Note: Actual official high and low records may vary slightly from our data, if they occured in-between our weather recording intervals... More about our weather records

Advertising

Dublin weather history for previous 24 hours

 ConditionsComfort  
Time TempWeatherWind HumidityBarometerVisibility
8:00 AM
Wed, May 27
48 °FPartly sunny.9 mph82%30.24 "HgN/A
7:30 AM48 °FPartly sunny.9 mph76%30.27 "HgN/A
7:00 AM48 °FPartly sunny.7 mph76%30.27 "HgN/A
6:30 AM46 °FBroken clouds.5 mph82%30.27 "HgN/A
6:00 AM46 °FPassing clouds.3 mph82%30.27 "HgN/A
5:30 AM46 °FPassing clouds.5 mph82%30.30 "HgN/A
4:30 AM46 °FPassing clouds.3 mph76%30.30 "HgN/A
4:00 AM45 °FPassing clouds.5 mph87%30.33 "HgN/A
3:30 AM43 °FPassing clouds.3 mph87%30.33 "HgN/A
3:00 AM43 °FPassing clouds.5 mph87%30.33 "HgN/A
2:30 AM43 °FPassing clouds.3 mph87%30.33 "HgN/A
2:00 AM45 °FPassing clouds.7 mph81%30.33 "HgN/A
1:30 AM46 °FPassing clouds.7 mph82%30.36 "HgN/A
1:00 AM46 °FPassing clouds.6 mph82%30.36 "HgN/A
12:30 AM46 °FPassing clouds.6 mph82%30.36 "HgN/A
12:00 AM48 °FPassing clouds.8 mph76%30.36 "HgN/A
11:30 PM
Tue, May 26
46 °FPassing clouds.8 mph82%30.36 "HgN/A
11:00 PM45 °FPassing clouds.7 mph87%30.36 "HgN/A
10:30 PM45 °FPassing clouds.7 mph81%30.36 "HgN/A
10:00 PM46 °FPassing clouds.9 mph82%30.36 "HgN/A
9:30 PM50 °FScattered clouds.9 mph71%30.36 "HgN/A
9:00 PM52 °FScattered clouds.12 mph72%30.36 "HgN/A
8:30 PM55 °FScattered clouds.13 mph63%30.36 "HgN/A
8:00 PM57 °FBroken clouds.12 mph59%30.36 "HgN/A
7:30 PM57 °FBroken clouds.10 mph63%30.36 "HgN/A
7:00 PM55 °FBroken clouds.10 mph67%30.33 "HgN/A
6:30 PM59 °FBroken clouds.9 mph59%30.33 "HgN/A
6:00 PM59 °FPartly sunny.12 mph59%30.33 "HgN/A
5:30 PM59 °FScattered clouds.12 mph59%30.33 "HgN/A
5:00 PM59 °FScattered clouds.13 mph59%30.33 "HgN/A
4:30 PM59 °FScattered clouds.15 mph59%30.33 "HgN/A
4:00 PM59 °FScattered clouds.14 mph55%30.33 "HgN/A
3:30 PM59 °FPartly sunny.14 mph63%30.33 "HgN/A
3:00 PM59 °FPassing clouds.14 mph63%30.33 "HgN/A
2:30 PM61 °FPassing clouds.13 mph55%30.33 "HgN/A
2:00 PM59 °FBroken clouds.15 mph63%30.33 "HgN/A
1:30 PM57 °FBroken clouds.13 mph67%30.33 "HgN/A
1:00 PM59 °FBroken clouds.13 mph63%30.33 "HgN/A
12:30 PM57 °FBroken clouds.14 mph63%30.33 "HgN/A
12:00 PM55 °FBroken clouds.14 mph72%30.33 "HgN/A
11:30 AM55 °FBroken clouds.15 mph67%30.33 "HgN/A
11:00 AM54 °FBroken clouds.15 mph82%30.33 "HgN/A
10:30 AM54 °FBroken clouds.14 mph88%30.30 "HgN/A
10:00 AM52 °FDrizzle. Broken clouds.12 mph94%30.30 "Hg6 mi
9:30 AM52 °FLight rain. Broken clouds.12 mph94%30.30 "Hg4 mi
9:00 AM52 °FLight rain. Broken clouds.N/A88%30.30 "HgN/A
Weather by CustomWeather, © 2015

See weather overviewHow to use our weather pages